This demonstration page uses our WeatherBlox Daily Observations layout. Learn more.

Hourly Observations for May 21, 2018

Temp ( °F °C ) Dew Point ( °F °C ) Humidity (%) Winds ( mph kmh ) Pressure ( in mb ) Visibility ( mi km ) Precip ( " mm )
12:15 am 00:15 Clear 72 22 64 18 78 78 Calm 30.09 1019 10 16.09344 0 0
12:35 am 00:35 Clear 68 20 64 18 88 88 Calm 30.09 1019 10 16.09344 0 0
12:55 am 00:55 Clear 70 21 64 18 83 83 Calm 30.09 1019 10 16.09344 0 0
1:15 am 01:15 Clear 68 20 64 18 88 88 Calm 30.12 1020 10 16.09344 0 0
1:35 am 01:35 Clear 68 20 66 19 94 94 Calm 30.09 1019 10 16.09344 0 0
1:55 am 01:55 Clear 64 18 64 18 100 100 Calm 30.09 1019 10 16.09344 0 0
2:15 am 02:15 Clear 64 18 64 18 100 100 NNW 6 9 30.09 1019 10 16.09344 0 0
2:35 am 02:35 Clear 64 18 63 17 94 94 N 3 6 30.12 1020 10 16.09344 0 0
2:55 am 02:55 Clear 68 20 63 17 83 83 ENE 5 7 30.12 1020 10 16.09344 0 0
3:15 am 03:15 Clear 68 20 63 17 83 83 N 8 13 30.12 1020 10 16.09344 0 0
3:35 am 03:35 Clear 68 20 63 17 83 83 NNE 9 15 30.12 1020 10 16.09344 0 0
3:55 am 03:55 Partly Cloudy 66 19 63 17 88 88 NE 8 13 30.12 1020 10 16.09344 0 0
4:15 am 04:15 Partly Cloudy 66 19 63 17 88 88 NNE 8 13 30.12 1020 10 16.09344 0 0
4:35 am 04:35 Partly Cloudy 64 18 63 17 94 94 NE 6 9 30.15 1021 10 16.09344 0 0
4:55 am 04:55 Mostly Cloudy 64 18 63 17 94 94 NNE 9 15 30.15 1021 10 16.09344 0 0
5:15 am 05:15 Mostly Cloudy 64 18 61 16 88 88 NNE 10 17 30.15 1021 10 16.09344 0 0
5:35 am 05:35 Partly Cloudy 64 18 61 16 88 88 NNE 9 15 30.18 1022 10 16.09344 0 0
5:55 am 05:55 Sunny 64 18 61 16 88 88 NNE 7 11 30.18 1022 10 16.09344 0 0
6:15 am 06:15 Sunny 64 18 61 16 88 88 NNE 6 9 30.18 1022 10 16.09344 0 0
6:35 am 06:35 Sunny 64 18 61 16 88 88 NE 5 7 30.18 1022 10 16.09344 0 0
6:55 am 06:55 Partly Cloudy 64 18 61 16 88 88 NE 3 6 30.21 1023 10 16.09344 0 0
7:15 am 07:15 Partly Cloudy 64 18 61 16 88 88 NE 6 9 30.21 1023 10 16.09344 0 0
7:35 am 07:35 Partly Cloudy 66 19 61 16 83 83 ENE 3 6 30.21 1023 10 16.09344 0 0
7:55 am 07:55 Sunny 68 20 61 16 78 78 NE 6 9 30.21 1023 10 16.09344 0 0
8:15 am 08:15 Sunny 68 20 63 17 83 83 NE 6 9 30.21 1023 10 16.09344 0 0
8:35 am 08:35 Sunny 68 20 63 17 83 83 ENE 6 9 30.24 1024 10 16.09344 0 0
8:55 am 08:55 Partly Cloudy 70 21 63 17 78 78 Calm 30.24 1024 10 16.09344 0 0
9:15 am 09:15 Mostly Cloudy 70 21 61 16 73 73 NE 8 13 30.24 1024 10 16.09344 0 0
9:35 am 09:35 Partly Cloudy 72 22 61 16 69 69 NE 6 9 30.24 1024 10 16.09344 0 0
9:55 am 09:55 Partly Cloudy 72 22 63 17 73 73 E 5 7 30.24 1024 10 16.09344 0 0
10:15 am 10:15 Partly Cloudy 72 22 61 16 69 69 E 3 6 30.24 1024 10 16.09344 0 0
10:35 am 10:35 Sunny 73 23 61 16 65 65 E 3 6 30.24 1024 10 16.09344 0 0
10:55 am 10:55 Sunny 73 23 61 16 65 65 Calm 30.24 1024 10 16.09344 0 0
11:15 am 11:15 Mostly Cloudy 73 23 63 17 69 69 E 3 6 30.24 1024 10 16.09344 0 0
11:35 am 11:35 Mostly Cloudy 73 23 61 16 65 65 Calm 30.24 1024 10 16.09344 0 0
11:55 am 11:55 Partly Cloudy 75 24 63 17 65 65 Calm 30.24 1024 10 16.09344 0 0
12:15 pm 12:15 Sunny 77 25 64 18 65 65 ESE 5 7 30.21 1023 10 16.09344 0 0
12:35 pm 12:35 Sunny 77 25 63 17 61 61 Calm 30.21 1023 10 16.09344 0 0
12:55 pm 12:55 Mostly Cloudy 77 25 64 18 65 65 Calm 30.21 1023 10 16.09344 0 0
1:15 pm 13:15 Mostly Cloudy 79 26 63 17 58 58 Calm 30.21 1023 10 16.09344 0 0
1:35 pm 13:35 Partly Cloudy 79 26 64 18 61 61 SSE 3 6 30.18 1022 10 16.09344 0 0
1:55 pm 13:55 Partly Cloudy 79 26 63 17 58 58 S 5 7 30.18 1022 10 16.09344 0 0
2:15 pm 14:15 Sunny 81 27 64 18 58 58 S 3 6 30.15 1021 10 16.09344 0 0
2:35 pm 14:35 Sunny 81 27 64 18 58 58 Calm 30.15 1021 10 16.09344 0 0
2:55 pm 14:55 Partly Cloudy 81 27 64 18 58 58 Calm 30.15 1021 10 16.09344 0 0
3:15 pm 15:15 Cloudy 81 27 64 18 58 58 SE 5 7 30.15 1021 10 16.09344 0 0
3:35 pm 15:35 Cloudy 79 26 64 18 61 61 Calm 30.15 1021 10 16.09344 0 0
3:55 pm 15:55 Cloudy 79 26 64 18 61 61 ESE 3 6 30.15 1021 10 16.09344 0 0
4:15 pm 16:15 Cloudy 81 27 63 17 54 54 Calm 30.15 1021 10 16.09344 0 0
4:35 pm 16:35 Cloudy 81 27 64 18 58 58 ENE 3 6 30.12 1020 10 16.09344 0 0
4:55 pm 16:55 Cloudy 81 27 64 18 58 58 ESE 5 7 30.12 1020 10 16.09344 0 0
5:15 pm 17:15 Cloudy 81 27 64 18 58 58 E 5 7 30.12 1020 10 16.09344 0 0
5:35 pm 17:35 Cloudy 81 27 64 18 58 58 E 5 7 30.12 1020 10 16.09344 0 0
5:55 pm 17:55 Cloudy 81 27 64 18 58 58 SE 5 7 30.12 1020 10 16.09344 0 0
6:15 pm 18:15 Cloudy 81 27 64 18 58 58 SSE 6 9 30.12 1020 10 16.09344 0 0
6:35 pm 18:35 Cloudy 81 27 64 18 58 58 S 7 11 30.12 1020 10 16.09344 0 0
6:55 pm 18:55 Cloudy 79 26 64 18 61 61 S 8 13 30.12 1020 10 16.09344 0 0
7:15 pm 19:15 Cloudy 79 26 64 18 61 61 SSE 9 15 30.12 1020 10 16.09344 0 0
7:35 pm 19:35 Partly Cloudy 79 26 66 19 65 65 SSE 7 11 30.12 1020 10 16.09344 0 0
7:55 pm 19:55 Sunny 77 25 66 19 69 69 SSE 10 17 30.12 1020 10 16.09344 0 0
8:15 pm 20:15 Sunny 77 25 66 19 69 69 S 10 17 30.15 1021 10 16.09344 0 0
8:35 pm 20:35 Clear 77 25 66 19 69 69 S 9 15 30.15 1021 10 16.09344 0 0
8:55 pm 20:55 Clear 75 24 66 19 74 74 SSE 8 13 30.15 1021 10 16.09344 0 0
9:15 pm 21:15 Partly Cloudy 75 24 64 18 69 69 S 10 17 30.15 1021 10 16.09344 0 0
9:35 pm 21:35 Partly Cloudy 73 23 64 18 74 74 SSE 6 9 30.15 1021 10 16.09344 0 0
9:55 pm 21:55 Partly Cloudy 73 23 64 18 74 74 SSE 9 15 30.15 1021 10 16.09344 0 0
10:15 pm 22:15 Mostly Cloudy 73 23 64 18 74 74 S 8 13 30.15 1021 10 16.09344 0 0
10:35 pm 22:35 Cloudy 73 23 64 18 74 74 S 10 17 30.15 1021 10 16.09344 0 0
10:55 pm 22:55 Cloudy 73 23 64 18 74 74 S 7 11 30.15 1021 10 16.09344 0 0
11:15 pm 23:15 Cloudy 72 22 64 18 78 78 S 7 11 30.15 1021 10 16.09344 0 0
11:35 pm 23:35 Cloudy 72 22 64 18 78 78 SSE 7 11 30.15 1021 10 16.09344 0 0
11:55 pm 23:55 Cloudy 72 22 64 18 78 78 S 5 7 30.15 1021 10 16.09344 0 0

Powered by AerisWeather